TIMESTAMP,CO2_1_1_1,H2O_1_1_1,TAU_1_1_1,TAU_SSITC_TEST_1_1_1,H_1_1_1,H_SSITC_TEST_1_1_1,LE_1_1_1,LE_SSITC_TEST_1_1_1,FC_1_1_1,FC_SSITC_TEST_1_1_1,WD_0_0_1,WS_0_0_1,WS_MAX_0_0_1,U_SIGMA_0_0_1,V_SIGMA_0_0_1,W_SIGMA_0_0_1,USTAR_0_0_1,MO_LENGTH_0_0_1,ZL_0_0_1,FETCH_MAX_0_0_1,FETCH_70_0_0_1,FETCH_80_0_0_1,FETCH_90_0_0_1,PA_0_0_1,RH_0_0_1,TA_0_0_1,VPD_0_0_1,T_SONIC_0_0_1,T_SONIC_SIGMA_0_0_1
[yyyymmddHHMMSS],[mmolCO2 mol-1],[mmolH2O mol-1],[kg m-1 s-2],[#],[W m-2],[#],[W m-2],[#],[umolCO2 m-2 s-1],[#],[Decimal degrees],[m s-1],[m s-1],[m s-1],[m s-1],[m s-1],[m s-1],[m],[#],[m],[m],[m],[m],[kPa],[%],[deg C],[hPa],[deg C],[deg C]
20220206003000,424.92250272653166,1.8729086075211405,0.63608240285741235,0,-5.8927109698836508,0,8.7367729015528077,0,0.48815734629712032,0,148.05166283246399,3.2856510314413718,9.4552479914464449,1.5566451192058051,1.2789564790550130,0.92683079719222006,0.71375822517302734,5121.2843447301575,3.7100068500494710E-003,101.60040416054994,185.75794259241036,222.30481404258504,278.29924753243529,93.491555783256103,74.671724137931037,-12.467931034482774,0.59409363613234401,-13.002684452672554,5.1686363844734337E-002
20220206010000,425.13493547232923,1.8847951262267864,0.64247994865333391,0,-6.7334920438226753,0,7.7282884923475086,0,0.53648296201497347,0,147.52548839511968,3.1162751789153713,9.0367125466073652,1.5242846187117314,1.1221619689526128,0.88025033998902680,0.71750218118119258,4552.2456542319323,4.1737642129081745E-003,106.32331753383588,194.39293453473994,232.63869398983863,291.23603896359293,93.477895641710077,74.653666666666666,-12.388333333333321,0.59834760251405672,-12.913173703511518,6.6143483298524416E-002
20220206013000,425.30534143669240,1.8995573353559096,0.39196197294469437,0,-14.460191048099462,0,4.3161733088954959,0,0.31149325255814636,0,155.35936983898691,2.4814417502405934,7.3221089698791522,1.2223202449301798,0.94016431922087318,0.77571180003409068,0.56058037478629097,1010.9319331278256,1.8794539352628776E-002,96.561697795231936,176.54558034363711,211.27996930095222,264.49745017158017,93.473236442491327,74.434333333333328,-12.255666666666684,0.61001425681386656,-12.772068299187538,8.0902854093917037E-002
20220206020000,425.44362199085526,1.9214350540245055,0.39709399920647231,0,-38.384731535318004,1,9.1079610252808099,0,0.69922860951896249,0,161.69551636337101,2.4429936581646476,6.8827916438247341,1.1496273277077296,0.94789075644610277,0.71278646388986300,0.56455965483759407,389.00956565115160,4.8841986618494745E-002,103.90949065439469,189.97968914852368,227.35716642113707,284.62419317643918,93.474641355685762,73.503000000000000,-11.956666666666649,0.64763101226632847,-12.455946788363917,0.14532133282813287
20220206023000,425.44004645050842,1.9215815560371345,0.40065617855513252,0,-22.452534927103802,0,8.8602254391842123,0,0.69923827077506306,0,161.20098024273423,3.0576048199181947,8.1559990462382395,1.2994238695809637,1.0933706266163727,0.82125600727327042,0.56765122055631556,675.87005252944243,2.8111912828349968E-002,93.183134063900965,170.36848830512861,203.88756778217768,255.24304068435026,93.442483204210077,70.988333333333330,-11.526000000000010,0.73401573687147847,-12.037445198059004,0.13686697401898815
20220206030000,425.27185743937696,1.9394204543545244,0.84732461814147275,0,-31.369092829983423,0,12.099139648434571,0,0.93081975122721561,0,169.08244069811133,2.9251346241081233,9.0324167222542489,1.5782678495495914,1.2572889849373223,0.98901176048677464,0.82617995859457216,1491.2253432642985,1.2741199769586077E-002,108.43099915022279,198.24644874006924,237.25036629235689,297.00930544540267,93.422920635003337,69.543000000000006,-11.155666666666662,0.79373511287160825,-11.671211947866823,0.13782180081685494
20220206033000,425.03871809479216,1.9888244845724874,0.72801534704441739,0,-22.907319850553161,0,1.3470794743809020,2,0.94488418008541375,0,175.87766074462073,3.5870049231224415,9.7917973138597620,1.6277778800982434,1.4198860071866879,1.0465199834668675,0.76611058854587821,1628.2850680869112,1.1668718440268752E-002,97.564101903616304,178.37829475415677,213.47326036855247,267.24319032282961,93.424448904513895,70.152000000000001,-10.949333333333357,0.79076722523342624,-11.483523596869532,6.6228174845130536E-002
20220206040000,424.96278001123079,2.0414080422025322,0.53042361256955284,0,-13.665225713084817,0,6.1350381705785377,0,0.46791602501232754,0,185.72903783487155,2.7851086338752786,7.6169575361918938,1.3254081701551605,1.2497756285698152,0.84505382125944273,0.65395385407748952,1697.8325685595184,1.1190738328291141E-002,101.99645714499614,186.48205376259875,223.17139017272714,279.38409801570879,93.435398101120825,71.769000000000005,-10.906333333333350,0.75049379863666277,-11.430923114352709,6.0513780847419173E-002
20220206043000,424.99115851153323,2.0376446095507839,0.55747319118692062,0,-17.677212041837844,0,9.0344254942533588,0,0.51070046597816254,0,182.28529172766321,2.6531843849159547,7.5698718350392706,1.3346799740430528,1.0454588463403682,0.83314800357757113,0.67052083552934116,1414.6978501408162,1.3430429683701561E-002,105.24633842355460,192.42387323627580,230.28223052084991,288.28602632854665,93.426467213673334,71.326333333333338,-10.853000000000009,0.76550526058306811,-11.380968967677006,5.7173109993121161E-002
20220206050000,425.10111571472612,2.0383480326732548,0.29605984121710788,0,-11.324898090428674,0,5.9158029915012591,0,0.50577878430089473,0,180.45956237613893,2.2646315203943930,7.2615168441018172,1.1427656498695162,0.92825533087827528,0.67838884156155821,0.48863965306283608,854.59481265583509,2.2232758400385629E-002,96.308120784495443,176.08196069377126,210.72513499017359,263.80286345351976,93.422789149739586,71.416333333333341,-10.865000000000009,0.76237392972731155,-11.397381173027838,5.3690168636188966E-002
20220206053000,425.23211476703551,2.1178064478643095,0.32764189288818568,0,-10.555400638276684,0,-1.1529962089929358,2,0.44070247370855092,0,181.10158584149445,2.9001539113151882,7.4622351770459856,1.1581419599020033,0.98274257466285142,0.74624753888576945,0.51402411488743460,1067.3104920037224,1.7801755105330431E-002,92.925598194150794,169.89763059837242,203.32407136592684,254.53761003812147,93.417166213107649,74.444333333333333,-10.906999999999982,0.67933658572431821,-11.422422045389794,4.9394023840321911E-002
20220206060000,425.34424032389643,2.2206495150632648,0.34513800794478361,0,-9.2587555833541941,0,0.54992193281977830,2,0.43736228427184959,0,175.42338600618723,2.3081525992310636,6.6930505750994653,1.0458446760314823,0.84456059441613229,0.69237821155056822,0.52759631375562277,1315.6646960230344,1.4441369489834934E-002,100.74455612930697,184.19317943256863,220.43219218634192,275.95494718181214,93.408313588324660,78.108000000000004,-10.915999999999997,0.58152976930762179,-11.424084025065099,4.5848028665936430E-002
20220206063000,425.47476611013877,2.2600548729508101,0.26079858898436747,0,-11.273533456094592,0,1.1935822286445736,0,0.53674963656652885,0,183.07609907196669,2.0621932098104061,6.3302439772239962,0.95170842491386320,0.82796780111498813,0.60726105020289289,0.45867219590692215,710.01607258194883,2.6759957603364047E-002,100.03603974409235,182.89778551068517,218.88193651007148,274.01421103515224,93.415997272790435,79.050333333333327,-10.844666666666683,0.55966755296662396,-11.350651057499363,5.1306933711093933E-002
20220206070000,425.57758724731832,2.2874785280501242,0.14153710784269688,0,-9.3105394833018611,0,0.39531104075948015,1,0.43409370341411574,0,189.31315240184955,1.6613093559223686,4.3226640395698848,0.66072823681407733,0.62674529387858524,0.47590598023313246,0.33796690626609682,343.90461532564740,5.5247877327870905E-002,95.222002650578474,174.09619034535896,208.34867505594781,260.82781761686357,93.406121417751748,79.510333333333335,-10.767333333333340,0.55075717461042673,-11.264185270521352,5.8206975715487913E-002
20220206073000,425.66087843160966,2.2979975419198104,0.11660796040599072,0,-8.1645050051363697,0,0.56164193713849886,0,0.38205607566283284,0,185.85532436288793,1.8630591629608684,4.7143086850172269,0.65870763884980454,0.59381927966751091,0.43522892579105860,0.30680689752032475,293.40290724496339,6.4757367874807098E-002,94.661371831807060,173.07117840461598,207.12199755458099,259.29216294800000,93.408416822699664,79.369333333333330,-10.687000000000012,0.55810071650583637,-11.184048956129288,7.0466345952005072E-002
20220206080000,425.68190638592762,2.3565059925937728,0.14124531906475898,0,-10.666883849342717,0,0.11639044094673213,2,0.47358670060840169,0,185.33651267446953,1.9004214646973312,4.9537487923202663,0.74337416998215067,0.64832086014489243,0.48415519075378605,0.33775963491795269,299.65852356048174,6.3405504953591360E-002,93.875750733485631,171.63481247588632,205.40303439086861,257.14022504662154,93.419716761067718,80.304000000000002,-10.516333333333307,0.54008787971700911,-11.011608843485476,0.10168304189879813
20220206083000,425.68490837015293,2.4357758297082710,0.22150466120022838,0,-14.892766710750395,0,3.5100619061872140,2,0.82468078169708769,0,191.61428778885974,1.9308339735087285,5.1383073464588733,0.81426493911021036,0.66067333910471049,0.54616478540849855,0.42314902852225733,422.03735975800197,4.5019711076987788E-002,102.09174387622161,186.65626829742314,223.37988047589889,279.64510313492042,93.419470126684502,81.629999999999995,-10.305666666666639,0.51221295125918775,-10.797039506620195,7.6314631956354309E-002
20220206090000,425.81093535739058,2.5887460474117288,0.12137984823309436,0,-7.9581939763056351,0,3.5252342785913662,1,0.44001548225596199,0,199.50347095777630,1.8424730668599785,5.1169906913422887,0.75909227714951910,0.74995971866494371,0.49521868637781963,0.31331626652036471,320.61543699785568,5.9261026786202667E-002,86.816772212926793,158.72874839457657,189.95777194030100,237.80458926002748,93.417381088713881,86.006666666666661,-10.196333333333314,0.39357062759318978,-10.674441204404900,5.4476973189728682E-002
20220206093000,425.94260370673476,2.5343105986083785,0.15056002624752024,0,-9.5938252218844582,0,2.3174340006227054,2,0.55306873289295955,0,196.70603778354103,1.6164757959009997,4.7436592003977855,0.70715450057970008,0.66203858752309408,0.45383328921938143,0.34896904752857955,367.47530348944372,5.1704154863146619E-002,101.47693638673780,185.53220412385502,222.03466275013363,277.96105017160471,93.421204938585078,83.913333333333327,-10.153000000000020,0.45400106674069124,-10.633058536105636,8.8397141577370650E-002
20220206100000,425.92305620985115,2.5993303195430966,0.12017478307270037,0,-9.4051455256242491,0,-0.55573906878833812,0,0.44656823129342865,0,201.90639937348652,1.8364702380821716,4.5074479109485290,0.67178378913244063,0.71218255910647266,0.46862066765058991,0.31188513055819128,267.63306267026479,7.0992723434207386E-002,90.405215323826781,165.28956687653212,197.80939600678047,247.63389088365412,93.438322623263886,84.526666666666671,-9.9223333333333130,0.44472661816103198,-10.400972272237141,7.7641027553127032E-002
20220206103000,426.04559041139180,2.6186943147991837,0.15826181913098666,0,-13.147082852365619,0,0.47090664041559699,2,0.66299399262406999,0,192.91927542907550,1.6974068233517163,4.3591802853167687,0.79765189489267840,0.66344718333171848,0.46943436374913572,0.35796095889705332,289.51069948665582,6.5627971725016512E-002,100.80069529478982,184.29581973173978,220.55502640975158,276.10872105348182,93.457610680989589,84.340000000000003,-9.7976666666666574,0.45454210559553276,-10.287441024780264,7.2249539182159650E-002
20220206110000,426.20272079181046,2.6470811281016369,0.11672758258578952,0,-10.556136243059477,0,-0.57188298872088095,1,0.37124511396188598,0,193.28521535156440,1.7638869620031079,4.3701235117957911,0.64510052413642327,0.60793675636509259,0.42568871561255672,0.30743064261936182,228.40983441925667,8.3183808824643837E-002,96.511465842925986,176.45374031416233,211.17006024194174,264.35985707198245,93.454398069383103,85.226666666666659,-9.7939999999999827,0.42893004668287005,-10.275133289935525,5.3666340317307035E-002
20220206113000,426.08168030836379,2.7128883247018774,0.26567610884815807,0,-21.096844062802386,0,-5.3223436216874989,1,1.4902145585361393,0,206.81888628931969,2.1831700946185837,5.2438906646952486,0.89819021957429623,0.82590227048219056,0.56668005744698735,0.46384672171276253,392.64700796013977,4.8389519376978975E-002,106.68028066875515,195.04557699292502,233.41974032507650,292.21381629298099,93.488461613064246,86.450000000000003,-9.6586666666666474,0.39763143157183550,-10.131087244669573,8.5913875286042413E-002
20220206120000,425.62437507398505,2.7657340124498755,0.16596166566892190,0,-9.6173933531913764,0,-0.78656685661832060,0,0.62991164330188287,0,206.48781663332801,1.9477108302082338,5.8143746448008047,0.85067637160002230,0.75984442298567523,0.52045313764643153,0.36672371992049457,425.66174005931219,4.4636381924653405E-002,94.628247254365419,173.01061611251055,207.04951995875601,259.20142959853149,93.489812344184031,87.000000000000000,-9.4940000000000282,0.38646954656851051,-9.9695671242607773,4.7255031334052386E-002
20220206123000,425.61918014744498,2.7626556518583776,0.22718280028966084,0,-8.8235589782523185,0,-1.5648738317172954,1,0.77803380835506586,0,210.10798562452578,1.9566485865901593,5.1927406301224046,1.0004525935833228,0.81482504280851464,0.53905607133744471,0.42904418467850225,743.03720857871645,2.5570724831322042E-002,104.31562447036895,190.72223129386168,228.24579972119651,285.73665661905017,93.502920141541864,86.833333333333329,-9.4820000000000277,0.39179399717224900,-9.9639690188042778,4.6731066801747469E-002
20220206130000,425.07722055846403,2.7899474663911690,0.36187614821362912,0,-7.8701387889542342,0,-0.23209492918650501,2,0.57165840659198586,1,216.55469148218464,2.1010131605221449,5.7892216860236978,0.95330156076701056,0.84164375652712053,0.66441447859936120,0.54146958914169241,1674.8969639227448,1.1343981396623024E-002,106.30725045718974,194.36355879429951,232.60353873120027,291.19202875145243,93.532447807116569,87.333333333333343,-9.4259999999999877,0.37857951507460713,-9.8973374799477369,4.8965760328334329E-002
20220206133000,424.85988120777000,2.7940409675829136,0.25107362055855559,0,-6.7955066575649479,0,-4.7243077399718635E-002,2,0.39554637076965371,0,222.95912978883496,1.7732675225798251,5.2894828606985582,0.82749796435269118,0.64772733981114394,0.51192485489089046,0.45106286956415820,1121.3345603848186,1.6944095608254148E-002,113.15652186060923,206.88621138282392,247.58995554956545,309.95324425513246,93.531568728515637,87.126666666666665,-9.3773333333333539,0.38623122648695701,-9.8582857877943297,3.4041295688037161E-002
20220206140000,424.89802121940443,2.7998832135336236,0.15612506639603488,0,-2.7991411141444016,1,9.3679085660917399E-002,2,0.26091605764268772,0,227.61405800130558,1.4387957914164726,3.7447291720658558,0.67284057519015184,0.55289922330653896,0.41495448644327332,0.35571092454009634,1335.1221466949917,1.4230907671656311E-002,110.69609252018462,202.38776183483736,242.20646036067137,303.21374710741571,93.533933809027772,87.066666666666663,-9.3416666666666970,0.38912053390315637,-9.8273621029323976,3.1743716736332313E-002
20220206143000,424.87523021124696,2.8197951777721357,0.12032502340327826,0,3.4461079308526452,2,0.80522821185588778,1,0.50692258596808681,0,226.75847161777375,1.4998391399617375,4.2873067134007563,0.66636500730258952,0.59064661296741816,0.42558285912983546,0.31235104141748504,-734.32447162365656,-2.5874120683993158E-002,97.764675727049720,178.74500767313305,213.91212207278070,267.79259309929904,93.543559585072728,86.656666666666666,-9.1899999999999977,0.40626582459681460,-9.6850482565054108,8.0776790799733544E-002
20220206150000,424.82695845705268,2.8374749255473137,0.37464275420073656,0,17.152328366679672,0,2.6125664632285743,0,0.67498324602761040,1,216.18558355090659,2.0934979991964351,6.0782104506300714,1.0939283004393154,0.75508102298750857,0.66499125673070492,0.55122921159545901,-811.15943616855861,-2.3423262003515431E-002,107.76256772890062,197.02434291662470,235.78781775187636,295.17836822504438,93.586625611396059,85.943333333333328,-8.9990000000000236,0.43444264845667818,-9.5146701084055962,5.9019544654704395E-002
20220206153000,424.66152295724424,2.8651820925653331,0.35441215885033012,0,34.790575867800605,1,3.8766473224855704,1,0.23960488918001338,1,222.64674310787620,2.0052608390901949,5.9575045245210685,1.0305500259014391,0.76477958861268702,0.62148599149181016,0.53632142459926457,-368.37125483833626,-5.1578400188522736E-002,111.28841102971580,203.47070898055983,243.50247150554080,304.83619927051518,93.597676685046466,85.393333333333331,-8.7913333333333412,0.45883963750995177,-9.3051048040138085,0.12333590012664127
20220206160000,424.53819873833561,2.8658877580405351,0.40506489217260105,1,24.399480405519281,0,4.6189867065812118,0,0.64572157181015744,0,231.59734274652996,2.1985259241125195,5.9981680870746485,0.98328949674687738,0.86909332404460526,0.65204214838844909,0.57350023321149179,-642.35838122208816,-2.9578504080311773E-002,112.99552469238282,206.59185721189280,247.23768878606515,309.51224806872494,93.623184279513893,84.150000000000006,-8.5969999999999800,0.50551519107440812,-9.1217502661810954,7.8314367612211763E-002
20220206163000,424.50436916668150,2.8552966352987559,0.26639771935102680,0,20.482995562874372,0,2.3302806260142113,1,0.17153523443620214,0,238.63697285859899,2.5664946068628560,6.1439632101364570,1.1211727197839185,0.88120273188193954,0.58067292149352001,0.46509298849064140,-408.20615295650543,-4.6545109284583615E-002,104.84349126953278,191.68734015721390,229.40078853838602,287.18256556221252,93.652434207099404,83.293333333333337,-8.5093333333333590,0.53649582653665395,-9.0523097920303712,7.7021524017462067E-002
20220206170000,424.46705859249494,2.8611142349142402,0.42668412407301287,0,36.934406791292439,1,7.9851019255105857,1,0.40110449392315867,0,241.66658941606164,2.2352530331405105,6.7429632785244298,1.1993338772112774,0.76911649740618915,0.58461951103746201,0.58855300524043141,-458.87694717232461,-4.1405435851770575E-002,125.88811215184852,230.16361896766907,275.44706729577342,344.82704251625131,93.687597020616323,83.186666666666667,-8.4619999999999891,0.54191837654556030,-8.9956282518174930,0.10327521533078016
20220206173000,424.56250899170954,2.8957425487127493,0.26603283509968279,0,39.264927462597186,0,8.2654149186413051,0,0.66027684553141164,0,242.30477949580299,1.8534473825530797,4.7237525308143971,0.84093302453763419,0.73584734076757419,0.56745824502048836,0.46489546569935597,-212.70424657797975,-8.9325908183193650E-002,106.75593280238192,195.18389322120527,233.58526952387035,292.42103920746155,93.669927171658003,83.289999999999992,-8.3260000000000218,0.54432740131042812,-8.8502736460367828,0.14487941492262979
20220206180000,424.37750607376847,2.9101525057737687,0.29827522664632589,1,48.877678188545040,0,13.196823332200690,1,7.4310248352490907E-002,2,235.74157937686189,1.7548704636435466,4.6360148829437708,0.85129894669090889,0.68993768659199739,0.54718864198282424,0.49252636965833779,-203.13214838548686,-9.3535169843935395E-002,115.10357972774645,210.44605414620744,251.85017814080743,315.28653740296420,93.634906818359383,82.483333333333334,-8.1419999999999959,0.57883565225648004,-8.7097706858316997,0.14796466662077928
20220206183000,424.49904870977360,2.9095104770264455,0.31280312615925704,1,40.808692722787882,0,12.309328624853197,0,0.40799015863853910,0,247.07122685538317,1.7021136363754668,4.5853461468433103,0.88253383668155749,0.66107960119649589,0.51946775876462026,0.50450572238456415,-261.47190346412890,-7.2665551243851309E-002,122.32096506066030,223.64173640176372,267.64203957643429,335.05607398992072,93.628340510199649,81.723333333333329,-8.0266666666666424,0.60938905453746317,-8.5785445878770474,0.12458546142015003
20220206190000,425.00427159360891,2.8736473093525792,0.22236588304994492,0,27.933730698174269,0,8.2235283502594498,1,-0.50401080286387889,1,277.38502454546392,1.9601171563614188,4.8518274964810644,0.80262667128851040,0.72443632100512179,0.54979851008969904,0.42534582283546946,-228.90385302067568,-8.3004282144101035E-002,101.97313956094794,186.43942178219666,223.12037058054554,279.32022754050246,93.621920290147571,80.974333333333334,-8.0686666666666724,0.63229535496618838,-8.6219669867621178,0.10221351892465902
20220206193000,425.83334689601094,2.7929341408149941,0.16363391427233689,0,19.937109811491911,0,7.4817062680283826,0,0.25677134775973287,2,283.60627493772756,2.2184775254935856,4.9339634802769172,0.89869470878662516,0.81424836903680575,0.48063923712688195,0.36474137883652930,-202.23778784337290,-9.3948812448022473E-002,100.41244703735016,183.58597809170936,219.70552726271973,275.04524892663386,93.627979493055548,79.750666666666660,-8.2383333333333439,0.66413938071980116,-8.8094106877645117,0.14453267496229477
20220206200000,426.93072927668800,2.7541818561196716,0.28883719017570447,0,16.393268453821168,0,8.8889588576226775,1,0.45658011463635101,2,300.75891883852853,2.6829445206283946,6.1352555253004155,0.99501249949196113,0.83547117579494401,0.57686220400353339,0.48420343223676210,-575.51251229381853,-3.3014051986935536E-002,108.84776669052573,199.00843272493250,238.16226650881296,298.15089630638948,93.649523062282981,80.890666666666661,-8.5966666666666924,0.60948326241851025,-9.1790457534789311,0.16985411690057775
20220206203000,427.08821201002712,2.6921120534086480,0.29835375691164223,0,23.780274759567714,0,10.301690321095322,1,0.42661293163847058,0,288.47852159295422,2.7554740874017551,6.5091496103590991,1.1393396771877393,0.73946735113632933,0.54647480961506112,0.49182152329612355,-415.79868341603776,-4.5695190383729704E-002,115.09191235885589,210.42472247475905,251.82464957826861,315.25457867199509,93.663390372829866,80.770333333333326,-8.8673333333333630,0.60048113336120257,-9.4437315894232370,0.12227536041155924
20220206210000,426.90110706017913,2.6591793392087038,0.54235709760078599,0,28.693411599641724,1,9.4661281946272187,1,0.45281551365638678,1,294.41805584223414,2.5821935231614672,6.4850577410327386,1.3096241033461138,0.87682649893241282,0.70044534669157776,0.66243892363872026,-842.16524038969635,-2.2560893146347506E-002,119.74907585830660,218.93950267787110,262.01466677618544,328.01127101235789,93.684096515842015,82.806666666666672,-9.3389999999999986,0.51739801746886172,-9.9451742748683500,0.21808054235384822
20220206213000,427.03182429703503,2.5344644658155149,0.45218059422063700,0,26.925151265443638,0,7.5246715847065540,0,-2.7648589543816087E-002,2,305.75107464623187,2.2439115224090354,6.3389765210454856,1.1939830105851093,1.0854587128554796,0.60566187108699865,0.60439859999152223,-681.75719834205256,-2.7869159352047330E-002,125.00560100026723,228.55010712008280,273.51610571088867,342.40970774821284,93.709849608723957,80.974666666666664,-9.6616666666666902,0.55817583721571140,-10.257142555236783,0.20898780233989170
20220206220000,427.39880383821554,2.5588962019001822,0.37578841140500374,0,18.983912547546918,0,5.3842587021199355,0,-1.1537416054057033E-002,2,309.75663891836666,2.5839886953735069,7.2769835577578794,1.2321146616559993,0.81343502510866927,0.57834600653896706,0.55016493366215025,-729.58544136753176,-2.6042186319379514E-002,120.30925338139353,219.96368584953160,263.24035245263110,329.54568403411446,93.760072378906244,86.073333333333338,-10.306333333333328,0.38829843641538503,-10.856573578728501,0.13295069262506720
20220206223000,428.22578576833314,2.4627151579166209,0.36691973499161312,0,50.391889800585552,1,23.023622974797696,1,-1.2427423318816433,2,306.53008625667417,2.1925294762333203,6.4896484685967577,1.0789519183878966,0.89375148383759662,0.56732528521142023,0.54294358028147571,-264.27323870771272,-7.1895285700925918E-002,120.89071596099554,221.02678489302227,264.51261048840507,331.13840012327285,93.812936783854170,86.310000000000002,-10.816333333333318,0.36655211176102936,-11.372768803914425,0.21619767051746877